C/2014 F3 ( Sheppard-Trujillo )

Japanese version
Home page
Updated on July 20, 2015

---------------------------------------------------------------------

* Profile

Discovery Date March 26, 2014
Magnitude 23.0 mag
Discoverer Scott S. Sheppard and Chadwick A. Trujillo (Cerro Tololo)

* Orbital Elements

Epoch 2021 May 26.0 TT = JDT 2459360.5
T 2021 May 19.50501 TT                                  MPCW
q   5.6894742            (2000.0)            P               Q
n   0.01620542     Peri.    3.57238     +0.86855136     +0.49157591
a  15.4654498      Node   326.74454     -0.45750429     +0.74638922
e   0.6321171      Incl.    6.59923     -0.19054752     +0.44861593
P  60.8
From 15 observations 2014 Mar. 26-2015 Apr. 19, mean residual 0".5.

* Finding Charts

* Magnitudes Graph

        m1 = 6.0 + 5 log d + 10.0 log r

---------------------------------------------------------------------

The orbital elements are published on M.P.E.C. 2015-J41.
The charts are made with StellaNavigator Ver.8 (AstroArts).
The magnitudes graphs are made with Comet for Windows.

---------------------------------------------------------------------

Copyright(C) Seiichi Yoshida (comet@aerith.net). All rights reserved.